This is the latest recevied weather packets stored in our database for station/object WC0AA-WX. If no packets are shown the sender has not sent any weather packets the latest 10 day(s).
| Time | Temp. | Humidity | Pressure | Rain* | Wind** | Luminosity | Snow |
|---|---|---|---|---|---|---|---|
| 1777875272 | 15° C | 57% | 1006.7 hPa | 0 mm | - | - | - |
| 1777874671 | 15.56° C | 53% | 1006.8 hPa | 0 mm | - | - | - |
| 1777874070 | 15.56° C | 52% | 1006.9 hPa | 0 mm | - | - | - |
| 1777873468 | 15.56° C | 51% | 1006.9 hPa | 0 mm | - | - | - |
| 1777872867 | 16.11° C | 50% | 1006.9 hPa | 0 mm | - | - | - |
| 1777872266 | 16.67° C | 50% | 1007.1 hPa | 0 mm | - | - | - |
| 1777869863 | 17.78° C | 46% | 1006.9 hPa | 0 mm | - | - | - |
| 1777869262 | 17.78° C | 47% | 1007 hPa | 0 mm | - | - | - |
| 1777868661 | 17.78° C | 47% | 1007.1 hPa | 0 mm | - | - | - |
| 1777868060 | 17.78° C | 47% | 1007.3 hPa | 0 mm | - | - | - |
| 1777867459 | 18.33° C | 47% | 1007.6 hPa | 0 mm | - | - | - |
| 1777866858 | 17.78° C | 47% | 1007.8 hPa | 0 mm | - | - | - |
| 1777866257 | 17.22° C | 49% | 1008.2 hPa | 0 mm | - | - | - |
| 1777865657 | 17.78° C | 49% | 1008.2 hPa | 0 mm | - | - | - |
| 1777865055 | 17.78° C | 48% | 1008.4 hPa | 0 mm | - | - | - |
| 1777864455 | 18.33° C | 49% | 1008.4 hPa | 0 mm | - | - | - |
| 1777862050 | 19.44° C | 43% | 1008.1 hPa | 0 mm | - | - | - |
| 1777861449 | 20° C | 43% | 1007.7 hPa | 0 mm | - | - | - |
| 1777858446 | 21.11° C | 40% | 1007.7 hPa | 0 mm | - | - | - |
| 1777854841 | 23.33° C | 37% | 1008.1 hPa | 0 mm | - | - | - |
| 1777853639 | 23.89° C | 35% | 1008.2 hPa | 0 mm | - | - | - |
| 1777846427 | 27.78° C | 30% | 1009 hPa | 0 mm | - | - | - |
| 1777841620 | 28.33° C | 29% | 1010.1 hPa | 0 mm | - | - | - |
| 1777838015 | 27.78° C | 29% | 1010.7 hPa | 0 mm | - | - | - |
| 1777836813 | 28.33° C | 31% | 1010.9 hPa | 0 mm | - | - | - |
* Rain latest hour (hover to see other rain measurements)
** Current wind speed in m/s (hover to see current wind gust speed)